category,name,time,total,current
風力(Wind),恆春,00:00:00,4.5,0.8
風力(Wind),恆春,00:10:00,4.5,1.7
風力(Wind),恆春,00:20:00,4.5,1.2
風力(Wind),恆春,00:30:00,4.5,1.4
風力(Wind),恆春,00:40:00,4.5,1.7
風力(Wind),恆春,00:50:00,4.5,1.4
風力(Wind),恆春,01:00:00,4.5,1.5
風力(Wind),恆春,01:10:00,4.5,1.2
風力(Wind),恆春,01:20:00,4.5,1.7
風力(Wind),恆春,01:30:00,4.5,1.8
風力(Wind),恆春,01:40:00,4.5,1.7
風力(Wind),恆春,01:50:00,4.5,1.6
風力(Wind),恆春,02:00:00,4.5,1.5
風力(Wind),恆春,02:10:00,4.5,1.6
風力(Wind),恆春,02:20:00,4.5,1.5
風力(Wind),恆春,02:30:00,4.5,1.8
風力(Wind),恆春,02:40:00,4.5,2.2
風力(Wind),恆春,02:50:00,4.5,1.9
風力(Wind),恆春,03:00:00,4.5,2.2
風力(Wind),恆春,03:10:00,4.5,1.4
風力(Wind),恆春,03:20:00,4.5,1.6
風力(Wind),恆春,03:30:00,4.5,1.3
風力(Wind),恆春,03:40:00,4.5,1.5
風力(Wind),恆春,03:50:00,4.5,1.1
風力(Wind),恆春,04:00:00,4.5,1.1
風力(Wind),恆春,04:10:00,4.5,0.7
風力(Wind),恆春,04:20:00,4.5,0.8
風力(Wind),恆春,04:30:00,4.5,0.7
風力(Wind),恆春,04:40:00,4.5,0.5
風力(Wind),恆春,04:50:00,4.5,0.6
風力(Wind),恆春,05:00:00,4.5,0.8
風力(Wind),恆春,05:10:00,4.5,0.6
風力(Wind),恆春,05:20:00,4.5,0.6
風力(Wind),恆春,05:30:00,4.5,0.5
風力(Wind),恆春,05:40:00,4.5,0.5
風力(Wind),恆春,05:50:00,4.5,0.6
風力(Wind),恆春,06:00:00,4.5,0.4
風力(Wind),恆春,06:10:00,4.5,0.2
風力(Wind),恆春,06:20:00,4.5,0.1
風力(Wind),恆春,06:30:00,4.5,0.1
風力(Wind),恆春,06:40:00,4.5,0
風力(Wind),恆春,06:50:00,4.5,0
風力(Wind),恆春,07:00:00,4.5,0
風力(Wind),恆春,07:10:00,4.5,0
風力(Wind),恆春,07:20:00,4.5,0
風力(Wind),恆春,07:30:00,4.5,0
風力(Wind),恆春,07:40:00,4.5,0
風力(Wind),恆春,07:50:00,4.5,0
風力(Wind),恆春,08:00:00,4.5,0
風力(Wind),恆春,08:10:00,4.5,0
風力(Wind),恆春,08:20:00,4.5,0
風力(Wind),恆春,08:30:00,4.5,0.1
風力(Wind),恆春,08:40:00,4.5,0.1
風力(Wind),恆春,08:50:00,4.5,0.1
風力(Wind),恆春,09:00:00,4.5,0.3
風力(Wind),恆春,09:10:00,4.5,0.4
風力(Wind),恆春,09:20:00,4.5,0.2
風力(Wind),恆春,09:30:00,4.5,0.4
風力(Wind),恆春,09:40:00,4.5,0.4
風力(Wind),恆春,09:50:00,4.5,0.5
風力(Wind),恆春,10:00:00,4.5,0.4
風力(Wind),恆春,10:10:00,4.5,0.5
風力(Wind),恆春,10:20:00,4.5,0.6
風力(Wind),恆春,10:30:00,4.5,0.6
風力(Wind),恆春,10:40:00,4.5,0.4
風力(Wind),恆春,10:50:00,4.5,0.6
風力(Wind),恆春,11:00:00,4.5,0.6
風力(Wind),恆春,11:10:00,4.5,0.8
風力(Wind),恆春,11:20:00,4.5,0.9
風力(Wind),恆春,11:30:00,4.5,0.6
風力(Wind),恆春,11:40:00,4.5,0.2
風力(Wind),恆春,11:50:00,4.5,0.9
風力(Wind),恆春,12:00:00,4.5,1.6
風力(Wind),恆春,12:10:00,4.5,0.9
風力(Wind),恆春,12:20:00,4.5,0.8
風力(Wind),恆春,12:30:00,4.5,0.9
風力(Wind),恆春,12:40:00,4.5,1.2
風力(Wind),恆春,12:50:00,4.5,0.8
風力(Wind),恆春,13:00:00,4.5,1.2
風力(Wind),恆春,13:10:00,4.5,0.5
風力(Wind),恆春,13:20:00,4.5,1.2
風力(Wind),恆春,13:30:00,4.5,1
風力(Wind),恆春,13:40:00,4.5,1
風力(Wind),恆春,13:50:00,4.5,1.6
風力(Wind),恆春,14:00:00,4.5,1
風力(Wind),恆春,14:10:00,4.5,1.4
風力(Wind),恆春,14:20:00,4.5,1.3
風力(Wind),恆春,14:30:00,4.5,1.4
風力(Wind),恆春,14:40:00,4.5,0.6
風力(Wind),恆春,14:50:00,4.5,1
風力(Wind),恆春,15:00:00,4.5,1.6
風力(Wind),恆春,15:10:00,4.5,0.9
風力(Wind),恆春,15:20:00,4.5,1
風力(Wind),恆春,15:30:00,4.5,0.8
風力(Wind),恆春,15:40:00,4.5,0.8
風力(Wind),恆春,15:50:00,4.5,1.3
風力(Wind),恆春,16:00:00,4.5,1.2
風力(Wind),恆春,16:10:00,4.5,1
風力(Wind),恆春,16:20:00,4.5,1.4
風力(Wind),恆春,16:30:00,4.5,1.2
風力(Wind),恆春,16:40:00,4.5,1.1
風力(Wind),恆春,16:50:00,4.5,0.7
風力(Wind),恆春,17:00:00,4.5,1.3
風力(Wind),恆春,17:10:00,4.5,1.5
風力(Wind),恆春,17:20:00,4.5,0.9
風力(Wind),恆春,17:30:00,4.5,1.1
風力(Wind),恆春,17:40:00,4.5,1.2
風力(Wind),恆春,17:50:00,4.5,0.9
風力(Wind),恆春,18:00:00,4.5,0.8
風力(Wind),恆春,18:10:00,4.5,0.7
風力(Wind),恆春,18:20:00,4.5,0.7
風力(Wind),恆春,18:30:00,4.5,0.3
風力(Wind),恆春,18:40:00,4.5,0.4
風力(Wind),恆春,18:50:00,4.5,0.3
風力(Wind),恆春,19:00:00,4.5,0.3
風力(Wind),恆春,19:10:00,4.5,0.3
風力(Wind),恆春,19:20:00,4.5,0.3
風力(Wind),恆春,19:30:00,4.5,0.3
風力(Wind),恆春,19:40:00,4.5,0.3
風力(Wind),恆春,19:50:00,4.5,0.4
風力(Wind),恆春,20:00:00,4.5,0.3
風力(Wind),恆春,20:10:00,4.5,0.3
風力(Wind),恆春,20:20:00,4.5,0.2
風力(Wind),恆春,20:30:00,4.5,0.2
風力(Wind),恆春,20:40:00,4.5,0.4
風力(Wind),恆春,20:50:00,4.5,0.3
風力(Wind),恆春,21:00:00,4.5,0.3
風力(Wind),恆春,21:10:00,4.5,0.3
風力(Wind),恆春,21:20:00,4.5,0.2
風力(Wind),恆春,21:30:00,4.5,0.3
風力(Wind),恆春,21:40:00,4.5,0.2
風力(Wind),恆春,21:50:00,4.5,0.2
風力(Wind),恆春,22:00:00,4.5,0.2
風力(Wind),恆春,22:10:00,4.5,0.3
風力(Wind),恆春,22:20:00,4.5,0.3
風力(Wind),恆春,22:30:00,4.5,0.2
風力(Wind),恆春,22:40:00,4.5,0.4
風力(Wind),恆春,22:50:00,4.5,0.3
風力(Wind),恆春,23:00:00,4.5,0.2
風力(Wind),恆春,23:10:00,4.5,0.3
風力(Wind),恆春,23:20:00,4.5,0.3
風力(Wind),恆春,23:30:00,4.5,0.2
風力(Wind),恆春,23:40:00,4.5,0.3
風力(Wind),恆春,23:50:00,4.5,0.4
